When you browse on this site, cookies collect data to enhance your experience and personalize the content and advertising you see.
Visit our Privacy Policy to learn more. By continuing to use the site, you agree to this use of cookies and data.
  • In Hungary
  • List of Countries
  • For 7 days
  • Water Temperature
  • Satellite Maps
  • Weather Map
  • News
  • Weather Widgets
  • user-avatar
    Login

    Hourly Weather Aalst

    Today, 16 January, Wednesday

    Time Temperature Precipitation Wind Pressure Humidity
    00:00 +5°C° 0 mm 6 mps 760 mmHg 83%
    01:00 +4°C° 0 mm 6 mps 759 mmHg 82%
    02:00 +4°C° 0 mm 6 mps 759 mmHg 81%
    03:00 +4°C° 0 mm 6 mps 758 mmHg 80%
    04:00 +4°C° 0 mm 6 mps 758 mmHg 80%
    05:00 +3°C° 0 mm 6 mps 758 mmHg 81%
    06:00 +2°C° 0 mm 6 mps 758 mmHg 82%
    07:00 +2°C° 0 mm 6 mps 757 mmHg 81%
    08:00 +2°C° 0 mm 6 mps 757 mmHg 81%
    09:00 +2°C° 0 mm 6 mps 756 mmHg 80%
    10:00 +3°C° 0 mm 7 mps 756 mmHg 77%
    11:00 +3°C° 0 mm 7 mps 756 mmHg 74%
    12:00 +4°C° 0 mm 7 mps 755 mmHg 71%
    13:00 +4°C° 0 mm 7 mps 754 mmHg 71%
    14:00 +4°C° 0 mm 7 mps 753 mmHg 71%
    15:00 +4°C° 0 mm 6 mps 752 mmHg 71%
    16:00 +4°C° 0.1 mm 7 mps 752 mmHg 73%
    17:00 +3°C° 0.1 mm 7 mps 751 mmHg 75%
    18:00 +3°C° 0.1 mm 7 mps 751 mmHg 77%
    19:00 +2°C° 0.3 mm 8 mps 751 mmHg 79%
    20:00 +2°C° 0.3 mm 8 mps 750 mmHg 82%
    21:00 +4°C° 0.3 mm 8 mps 750 mmHg 84%
    22:00 +4°C° 0.7 mm 7 mps 750 mmHg 85%
    23:00 +5°C° 0.7 mm 5 mps 751 mmHg 86%

    Tomorrow, 17 January, Thursday

    Time Temperature Precipitation Wind Pressure Humidity
    00:00 +5°C° 0.7 mm 4 mps 751 mmHg 87%
    01:00 +5°C° 0 mm 4 mps 751 mmHg 87%
    02:00 +4°C° 0 mm 4 mps 751 mmHg 86%
    03:00 +3°C° 0 mm 4 mps 751 mmHg 86%
    04:00 +4°C° 0.2 mm 4 mps 751 mmHg 87%
    05:00 +3°C° 0.2 mm 5 mps 751 mmHg 88%
    06:00 +3°C° 0.2 mm 5 mps 751 mmHg 89%
    07:00 +3°C° 0.3 mm 5 mps 752 mmHg 87%
    08:00 +3°C° 0.3 mm 5 mps 753 mmHg 86%
    09:00 +3°C° 0.3 mm 5 mps 753 mmHg 84%
    10:00 +3°C° 0.3 mm 5 mps 754 mmHg 77%
    11:00 +4°C° 0.3 mm 6 mps 755 mmHg 70%
    12:00 +4°C° 0.3 mm 6 mps 756 mmHg 63%
    13:00 +3°C° 0 mm 6 mps 756 mmHg 62%
    14:00 +3°C° 0 mm 6 mps 757 mmHg 61%
    15:00 +3°C° 0 mm 6 mps 758 mmHg 60%
    16:00 +2°C° 0.1 mm 5 mps 758 mmHg 64%
    17:00 +2°C° 0.1 mm 5 mps 759 mmHg 67%
    18:00 +1°C° 0.1 mm 4 mps 760 mmHg 71%
    19:00 +1°C° 0 mm 4 mps 761 mmHg 72%
    20:00 +1°C° 0 mm 3 mps 761 mmHg 74%
    21:00 +1°C° 0 mm 3 mps 762 mmHg 76%
    22:00 +1°C° 0 mm 3 mps 762 mmHg 77%
    23:00 +2°C° 0 mm 2 mps 762 mmHg 78%

    Day after tomorrow, 18 January, Friday

    Time Temperature Precipitation Wind Pressure Humidity
    00:00 +1°C° 0 mm 2 mps 763 mmHg 79%
    01:00 +1°C° 0 mm 2 mps 763 mmHg 79%
    02:00 +1°C° 0 mm 2 mps 763 mmHg 80%
    03:00 +1°C° 0 mm 2 mps 763 mmHg 81%
    04:00 +1°C° 0 mm 2 mps 763 mmHg 82%
    05:00 +1°C° 0 mm 2 mps 763 mmHg 83%
    06:00 +1°C° 0 mm 2 mps 763 mmHg 84%
    07:00 +1°C° 0 mm 2 mps 763 mmHg 82%
    08:00 +1°C° 0 mm 2 mps 763 mmHg 81%
    09:00 +1°C° 0 mm 2 mps 763 mmHg 80%
    10:00 +2°C° 0 mm 2 mps 763 mmHg 76%
    11:00 +3°C° 0 mm 2 mps 763 mmHg 73%
    12:00 +4°C° 0 mm 2 mps 763 mmHg 69%
    13:00 +4°C° 0 mm 2 mps 762 mmHg 69%
    14:00 +4°C° 0 mm 2 mps 762 mmHg 70%
    15:00 +4°C° 0 mm 2 mps 761 mmHg 70%
    16:00 +3°C° 0 mm 2 mps 761 mmHg 73%
    17:00 +2°C° 0 mm 2 mps 761 mmHg 76%
    18:00 0°C° 0 mm 3 mps 761 mmHg 78%
    19:00 0°C° 0 mm 3 mps 761 mmHg 78%
    20:00 0°C° 0 mm 3 mps 761 mmHg 77%
    21:00 -1°C° 0 mm 4 mps 761 mmHg 76%
    22:00 -1°C° 0 mm 4 mps 760 mmHg 75%
    23:00 -1°C° 0 mm 4 mps 760 mmHg 75%

    19 January, Saturday

    Time Temperature Precipitation Wind Pressure Humidity
    00:00 -1°C° 0 mm 4 mps 759 mmHg 74%
    01:00 -1°C° 0 mm 4 mps 759 mmHg 74%
    02:00 -1°C° 0 mm 4 mps 758 mmHg 75%
    03:00 -2°C° 0 mm 4 mps 758 mmHg 76%
    04:00 -1°C° 0 mm 5 mps 757 mmHg 77%
    05:00 -1°C° 0 mm 5 mps 757 mmHg 77%
    06:00 0°C° 0 mm 5 mps 756 mmHg 78%
    07:00 0°C° 0.6 mm 5 mps 756 mmHg 80%
    08:00 +1°C° 0.6 mm 5 mps 756 mmHg 82%
    09:00 +1°C° 0.6 mm 5 mps 755 mmHg 84%
    10:00 +1°C° 0.4 mm 5 mps 755 mmHg 85%
    11:00 +2°C° 0.4 mm 5 mps 755 mmHg 85%
    12:00 +2°C° 0.4 mm 5 mps 754 mmHg 85%
    13:00 +3°C° 0.3 mm 4 mps 754 mmHg 86%
    14:00 +3°C° 0.3 mm 4 mps 754 mmHg 87%
    15:00 +3°C° 0.3 mm 3 mps 753 mmHg 88%
    16:00 +3°C° 0.5 mm 3 mps 753 mmHg 90%
    17:00 +3°C° 0.5 mm 3 mps 753 mmHg 92%
    18:00 +3°C° 0.5 mm 3 mps 753 mmHg 93%
    19:00 +3°C° 0.3 mm 3 mps 753 mmHg 94%
    20:00 +4°C° 0.3 mm 2 mps 753 mmHg 95%
    21:00 +3°C° 0.3 mm 2 mps 754 mmHg 95%
    22:00 +3°C° 0 mm 2 mps 754 mmHg 96%
    23:00 +3°C° 0 mm 2 mps 754 mmHg 96%

    20 January, Sunday

    Time Temperature Precipitation Wind Pressure Humidity
    00:00 +3°C° 0 mm 2 mps 754 mmHg 96%
    01:00 +3°C° 0 mm 2 mps 754 mmHg 97%
    02:00 +3°C° 0 mm 2 mps 754 mmHg 97%
    03:00 +4°C° 0 mm 1 mps 754 mmHg 97%
    04:00 +4°C° 0.1 mm 1 mps 754 mmHg 97%
    05:00 +4°C° 0.1 mm 1 mps 755 mmHg 97%
    06:00 +4°C° 0.1 mm 1 mps 755 mmHg 97%
    07:00 +4°C° 0.1 mm 1 mps 755 mmHg 96%
    08:00 +5°C° 0.1 mm 1 mps 756 mmHg 96%
    09:00 +5°C° 0.1 mm 1 mps 756 mmHg 96%
    10:00 +5°C° 0 mm 1 mps 757 mmHg 94%
    11:00 +5°C° 0 mm 1 mps 757 mmHg 93%
    12:00 +5°C° 0 mm 2 mps 757 mmHg 91%
    13:00 +4°C° 0 mm 2 mps 758 mmHg 91%
    14:00 +3°C° 0 mm 3 mps 758 mmHg 90%
    15:00 +3°C° 0 mm 3 mps 758 mmHg 89%
    16:00 +3°C° 0 mm 3 mps 759 mmHg 90%
    17:00 +2°C° 0 mm 3 mps 760 mmHg 90%
    18:00 +2°C° 0 mm 3 mps 760 mmHg 91%
    19:00 +1°C° 0 mm 3 mps 761 mmHg 90%
    20:00 +1°C° 0 mm 3 mps 761 mmHg 89%
    21:00 +2°C° 0 mm 2 mps 762 mmHg 88%
    22:00 +1°C° 0 mm 3 mps 763 mmHg 87%
    23:00 +1°C° 0 mm 3 mps 763 mmHg 87%

    21 January, Monday

    Time Temperature Precipitation Wind Pressure Humidity
    00:00 +1°C° 0 mm 3 mps 763 mmHg 86%
    01:00 +1°C° 0 mm 3 mps 764 mmHg 86%
    02:00 0°C° 0 mm 3 mps 764 mmHg 86%
    03:00 0°C° 0 mm 3 mps 764 mmHg 86%
    04:00 0°C° 0 mm 3 mps 765 mmHg 87%
    05:00 -1°C° 0 mm 3 mps 765 mmHg 88%
    06:00 -1°C° 0 mm 3 mps 765 mmHg 88%
    07:00 -1°C° 0 mm 3 mps 766 mmHg 87%
    08:00 -1°C° 0 mm 3 mps 766 mmHg 87%
    09:00 -1°C° 0 mm 3 mps 767 mmHg 86%
    10:00 0°C° 0 mm 3 mps 767 mmHg 83%
    11:00 +1°C° 0 mm 3 mps 767 mmHg 80%
    12:00 +3°C° 0 mm 2 mps 767 mmHg 77%
    13:00 +3°C° 0 mm 2 mps 767 mmHg 76%
    14:00 +3°C° 0 mm 2 mps 767 mmHg 76%
    15:00 +3°C° 0 mm 2 mps 767 mmHg 75%
    16:00 +2°C° 0 mm 2 mps 767 mmHg 77%
    17:00 +1°C° 0 mm 2 mps 767 mmHg 80%
    18:00 -1°C° 0 mm 2 mps 767 mmHg 82%
    19:00 -1°C° 0 mm 2 mps 767 mmHg 82%
    20:00 0°C° 0 mm 1 mps 767 mmHg 82%
    21:00 0°C° 0 mm 1 mps 767 mmHg 82%
    22:00 0°C° 0 mm 1 mps 766 mmHg 83%
    23:00 0°C° 0 mm 1 mps 766 mmHg 83%
    Show more